Location: Unspecified
(57.6483°N, 3.3184°W)
Time: 10:19:28
(UTC+00:00)

BlueWalker 3 - Pass Details

Date: 29 January 2026
Orbit: 450 x 461 km, 53.2° (Epoch: 11 February)

Event Time Altitude Azimuth Distance (km) Brightness Sun altitude
Rises 19:03:40 0° 258° (WSW) 2,458 7.0 -19.9°
Reaches altitude 10° 19:05:52 10° 251° (WSW) 1,585 5.5 -20.2°
Maximum altitude 19:09:14 41° 180° (S) 671 2.5 -20.6°
Enters shadow 19:09:18 41° 177° (S) 672 2.5 -20.6°
